Location: Munkebjergskolens Observatorium
(55.3864°N, 10.3987°E)
Time: 23:11:19
(UTC+01:00)

DELTA 1 DEB - Pass Details

Date: 12 December 2023
Orbit: 783 x 826 km, 98.9° (Epoch: 04 March)

Event Time Altitude Azimuth Distance (km) Brightness Sun altitude
Rises 17:25:36 0° 153° (SSE) 3,309 ? -12.6°
Reaches altitude 10° 17:27:55 10° 152° (SSE) 2,389 ? -12.9°
Maximum altitude 17:33:10 72° 69° (ENE) 862 ? -13.6°
Drops below altitude 10° 17:38:32 10° 346° (NNW) 2,432 ? -14.3°
Sets 17:40:54 0° 345° (NNW) 3,373 ? -14.6°
